Tracking 30116 objects as of 10-Feb-2025
HD Live streaming from Space Station
objects crossing your sky now

CENTISPACE-1 S14

Track CENTISPACE-1 S14 now!
10-day predictions


NORAD ID: 62583
Int'l Code: 2025-007J
Perigee: 644.8 km
Apogee: 661.5 km
Inclination: 55.0 °
Period: 97.6 minutes
Semi major axis: 7024 km
RCS: Unknown
Launch date: January 13, 2025
Source: People's Republic of China (PRC)
Launch site: Yellow Sea Launch Area, China (YSLA)
Your satellite tracking list
Your tracking list is empty




NASA's NSSDC Master Catalog

Two Line Element Set (TLE):
1 62583U 25007J   25041.57438094  .00003618  00000-0  56724-3 0  9995
2 62583  54.9827  12.2418 0011894   5.0103 355.1013 14.74730099  4197
Source of the keplerian elements: AFSPC